Regional Weather Roundup
Issued by NWS Grand Forks, ND

Home | Current Version | Previous Version | Text Only | Print | Product List | Glossary On
Versions: 1 2 3 4 5 6 7 8 9 10 11 12 13 14 15 16 17 18 19 20 21 22 23 24 25 26 27 28 29 30 31 32 33 34 35 36 37 38 39 40 41 42 43 44 45 46 47 48 49 50
000
ASUS43 KFGF 220531
RWRFGF
PRAIRIE TO PINES  WEATHER ROUNDUP
NATIONAL WEATHER SERVICE EASTERN NORTH DAKOTA/GRAND FORKS ND
1200 AM CDT SUN OCT 22 2017

 **SATELLITE DATA USED TO AUGMENT SKY COVER AT AUTOMATED STATIONS**
 *****  WEATHER ACROSS EASTERN NORTH DAKOTA  *****

CITY           SKY/WX    TMP DP  RH WIND       PRES   REMARKS
GRAND FORKS    CLOUDY    52  37  56 W21G29    29.64F
GRAND FRKS AFB CLOUDY    50  35  57 NW14      29.64F
DEVILS LAKE    MOCLDY    45  38  76 W16       29.68R
FARGO          CLOUDY    52  40  63 W17G28    29.72S
WAHPETON ARPT  NOT AVBL
$$

 ***** WEATHER ACROSS CENTRAL AND WESTERN NORTH DAKOTA  *****

CITY           SKY/WX    TMP DP  RH WIND       PRES   REMARKS
BISMARCK       FAIR      40  32  73 W6        29.82S
MINOT          FAIR      45  32  60 W14       29.72S
JAMESTOWN      FAIR      47  36  65 W13       29.75S
MINOT AFB      FAIR      42  31  66 W15       29.70
GARRISON         N/A     39  32  76 W15       29.77S
WILLISTON      FAIR      39  26  59 W12       29.80S
DICKINSON      FAIR      36  25  64 W12       29.83S
HETTINGER      FAIR      31  20  63 CALM      29.90S
$$

 *****  OTHER AIRPORT OBSERVATIONS IN OUR AREA  *****

CITY           SKY/WX    TMP DP  RH WIND       PRES   REMARKS
WALHALLA       FAIR     N/A N/A N/A W13G20    29.58F
GRAFTON AIRPOR NOT AVBL
VALLEY CITY AR NOT AVBL
CANDO          CLOUDY    45  41  87 W15       29.67R
CAVALIER APRT  CLOUDY    48  41  76 W14       29.59F
GWINNER          N/A     48  39  71 W10       29.80R
SHEYENNE NWR     N/A     49  40  70 W12       29.95S
ROLLA          CLOUDY    45  37  76 W20G28    29.62S
 ***** THE ABOVE OBSERVATIONS ARE NON NWS ARE NOT QUALITY
       CONTROLLED AND MAY MIS-REPORT RAIN FOR SNOW...
$$

  *****  WEATHER ACROSS NORTHERN MINNESOTA  *****

CITY           SKY/WX    TMP DP  RH WIND       PRES   REMARKS
FLAG ISLAND    CLOUDY    50  43  76 SW7       29.54S
WARROAD        CLOUDY    50  45  81 SW14      29.58F
ROSEAU         CLOUDY    52  43  71 SW12      29.58F
HALLOCK        CLOUDY    50  43  76 W13G20    29.60R
THF RVR FALLS  CLOUDY    50  40  68 W14       29.65S
BAUDETTE       CLOUDY    49  44  83 SW8       29.59S
WASKISH        CLOUDY    50  45  81 SW14G21   29.64S
CROOKSTON      CLOUDY    52  37  58 W14       29.66F
STEPHEN NDAWN    N/A     50  39  66 W12         N/A
GREENBUSH NDAW   N/A     50  39  66 SW12        N/A
$$
  *****  WEATHER ACROSS CENTRAL AND WEST MINNESOTA  *****

CITY           SKY/WX    TMP DP  RH WIND       PRES   REMARKS
FOSSTON        CLOUDY    46  39  76 SW9       29.67F
BEMIDJI        CLOUDY    48  43  82 SW10G16   29.68R
PARK RAPIDS    FAIR      46  42  86 SW8       29.71F
ELBOW LAKE     FAIR      46  40  79 SW9       29.79R
WADENA         FAIR      45  41  87 SW6       29.75R
DETROIT LAKES  MOCLDY    48  41  76 W12       29.73S
MOORHEAD       CLOUDY    52  39  62 W17G24    29.73R
FERGUS FALLS   FAIR      46  39  76 W10       29.78R
MORRIS MN      FAIR      46  39  76 W9        29.81R
STAPLES        FAIR      45  39  81 S7        29.76R
$$
  *****  WEATHER ELSEWHERE ACROSS MINNESOTA  *****

CITY           SKY/WX    TMP DP  RH WIND       PRES   REMARKS
DULUTH         CLOUDY    53  51  93 W16       29.71R
INTRNTL FALLS  FAIR      50  46  86 SW7       29.62R
ELY            LGT RAIN  57  55  94 W17G24    29.65R
CLOQUET        MOCLDY    52  48  87 W8        29.74R
WHEATON        FAIR      48  39  71 W10       29.83R
BRAINERD       FAIR     N/A N/A N/A SW9       29.76S
HIBBING        MOCLDY    50  48  93 W5        29.69R
ALEXANDRIA     FAIR      47  41  80 W9        29.79S
SAINT CLOUD    FAIR      48  44  86 SW8       29.82R
MINNEAPOLIS    FAIR      53  46  77 W8        29.85R
$$

  *****  WEATHER ACROSS SOUTH DAKOTA  *****

CITY           SKY/WX    TMP DP  RH WIND       PRES   REMARKS
SIOUX FALLS    FAIR      45  38  76 W5        29.95R
BROOKINGS      FAIR      43  38  82 W12       29.92R
WATERTOWN      FAIR      43  39  86 SW9       29.86R
HURON          FAIR      43  36  76 SW10      29.93R
SISSETON         N/A     51  40  65 W10       29.80R
ABERDEEN       FAIR      40  37  89 SW7       29.86R
MITCHELL       FAIR      44  36  73 SW8       29.96R
PIERRE         FAIR      45  31  58 W8        29.93R
MOBRIDGE       FAIR      45  32  60 NW6       29.85F
RAPID CITY     FAIR      35  17  47 NW6       29.98S
$$

  *****  SOME WEATHER IN NEARBY STATES *****

CITY           SKY/WX    TMP DP  RH WIND       PRES   REMARKS
GLASGOW MT     FAIR      38  23  55 W6        29.81S
GREAT FALLS MT MOCLDY    46  25  43 SW18G29   29.83S
CHEYENNE WY    FAIR      38  15  39 W13       30.12R
SCOTTSBLUFF NE FAIR      36  18  48 NW9       30.07S
OMAHA NE       CLOUDY    52  40  63 CALM      29.99S
DES MOINES IA  LGT RAIN  53  49  86 NW13      29.93F
DAVENPORT IA   FAIR      70  58  65 S16G23    29.89F
CHICAGO IL     FAIR      67  55  65 S20       30.00S
EAU CLAIRE WI  LGT RAIN  56  53  90 W14       29.81R
LA CROSSE WI   RAIN      62  61  96 S14       29.81S
$$

  *****  SOME NATIONAL WEATHER *****

CITY           SKY/WX    TMP DP  RH WIND       PRES   REMARKS
LA GUARDIA NY  MOCLDY    64  47  53 CALM      30.35S
RALEIGH NC     MOCLDY    58  54  86 CALM      30.35R
ATLANTA GA     MOCLDY    61  55  81 E8        30.27F
NEW ORLEANS LA MOCLDY    78  75  90 E13       30.06S
OKLAHOMA CITY  TSTM      56  53  90 N20       29.99F
ALBUQUERQUE NM FAIR      52   0  12 N17       30.26R
SALT LAKE CITY FAIR      46  25  43 SE7       30.30R
LOS ANGELES CA FAIR      69  53  56 CALM      30.08R
BOISE ID       MOCLDY    46  39  76 S6G18     30.19S
SEATTLE WA     LGT RAIN  57  56  96 S17G24    29.65R
$$

*** WEATHER ACROSS MANITOBA...SASKATCHEWAN AND ONTARIO ***
                ***ONTARIO***

CITY           SKY/WX    TMP DP  RH WIND       PRES   REMARKS
GERALDTON      CLOUDY    55  54  94 S9        29.78R
THUNDER BAY    CLOUDY    57  55  94 E8        29.71F
SIOUX LOOKOUT  CLOUDY    61  59  94 S12G17    29.51F
TORONTO        CLEAR     55  52  88 NE5       30.21F
BIG TROUT LK   CLEAR     52  52 100 S14       29.48F
PICKLE LAKE    NOT AVBL
DRYDEN         LGT RAIN  52  52 100 SW13G18   29.53R FOG
KENORA         MOCLDY    50  45  81 SW10G17   29.54R
$$
                *** MANITOBA***

CITY           SKY/WX    TMP DP  RH WIND       PRES   REMARKS
BRANDON        CLOUDY    45  37  76 W21G28    29.55F
DAUPHIN        CLOUDY    43  36  75 W18G26    29.50S
ISLAND LAKE    PTCLDY    57  45  62 S12G18    29.34R
PILOT MOUND      N/A     43  36  75 W13G22      N/A
THE PAS        LGT RAIN  39  36  87 NW16G22   29.42  FOG
THOMPSON       CLOUDY    39  39 100 N9        29.28F
WINNIPEG       CLOUDY    48  41  76 W12       29.53S
LYNN LAKE      RAIN      34  34 100 N9        29.42F
CHURCHILL      CLOUDY    36  36 100 NW3       29.42F
GILLAM         CLOUDY    50  43  76 E3        29.28F
$$
                ***SASKATCHEWAN***

CITY           SKY/WX    TMP DP  RH WIND       PRES   REMARKS
ESTEVAN        PTCLDY    37  30  75 W14       29.72S
KINDERSLEY     PTCLDY    32  27  80 SE10      29.66F WCI  24
LLOYDMINSTER   CLEAR     28  25  86 S2        29.61F
PRINCE ALBERT  PTCLDY    36  34  93 W5        29.64R
REGINA         CLEAR     32  28  86 W6        29.70R
YORKTON        LGT RAIN  39  37  93 W8        29.58R
N. BATTLEFORD  CLEAR     30  25  80 CALM      29.66
LA RONGE       LGT RAIN  39  36  87 NW8       29.58S
SASKATOON      CLEAR     30  28  93 SW8       29.68F WCI  23
SWIFT CURRENT  CLEAR     34  25  69 W6        29.72S
$$
NOTE: THESE ARE AUTOMATED STATIONS WITH LIMITED QUALITY CONTROL
      "FAIR" INDICATES FEW OR NO CLOUDS BELOW 12,000 FEET WITH NO
      SIGNIFICANT WEATHER AND/OR OBSTRUCTIONS TO VISIBILITY.
      SKY/WX - SKY CONDITION AND SIGNIFICANT WEATHER.
      TMP - AIR TEMPERATURE.    DP   - DEWPOINT TEMPERATURE.
      RH  - RELATIVE HUMIDITY.  PRES - PRESSURE.
      HX  - HEAT INDEX.         WCI  - WIND CHILL INDEX.
$




USA.gov is the U.S. government's official web portal to all federal, state and local government web resources and services.